Location: Zagreb
(45.8000°N, 16.0000°E)
Time: 23:46:39
(UTC+01:00)

Transit 2A Rocket - Pass Details

Date: 02 October 2020
Orbit: 586 x 916 km, 66.7° (Epoch: 27 October)

Event Time Altitude Azimuth Distance (km) Brightness Sun altitude
Rises 19:18:40 0° 271° (W) 3,552 11.0 -8.7°
Reaches altitude 10° 19:22:12 10° 291° (WNW) 2,608 9.1 -9.3°
Maximum altitude 19:26:03 17° 330° (NNW) 2,130 7.8 -10.0°
Drops below altitude 10° 19:29:50 10° 10° (N) 2,554 7.7 -10.6°
Sets 19:33:16 0° 30° (NNE) 3,447 8.1 -11.2°
